COSMOS 1275 DEB, 12676

Orbit data source: Space-Track

COSMOS 1275 DEB, 12676 is space debris in LEO originally from a launch on Thu, 04 Jun 1981 UTC launched from the Plesetsk Missile And Space Complex (PKMTR). Debris objects in space refer to the collection of defunct objects orbiting the Earth. Examples of debris include non-operational satellites, rocket bodies, and fragments generated from explosions, collisions, or faulty payload assembly.

Loading next visibility...
Identifier
12676, 1981-053AG
Orbit
LEO
Country
Flag of CISCIS
Related business
Manufacturer
Unknown
Mission
Spacecraft
Bus & Motor
Unknown
Mass
Unknown
Launch date (UTC)
1981-06-04 (45 years ago)
Launch vehicle
Unknown
Launch site
Plesetsk Missile And Space Complex (PKMTR)
Object type
Payload
Rocket body
Debris
Shape & HBR
Unknown shape, 0.6 m
Radar Cross Section
Medium (>0.1 m² and <1 m²)

Expand to show TLE details & history
Last TLE update: 14 hours ago

TLE from 14 hours ago
0 COSMOS 1275 DEB
1 12676U 81053AG  26227.35346905  .00000292  00000-0  23597-3 0  9995
2 12676  82.9406  75.8457 0042552 291.7395 241.5634 13.86874716268926
Epoch: 2026-08-15T08:28Z
TLE epoch observation values (Epoch: 2026-08-15T08:28:59.725Z)
Latitude
6.99782°
Longitude
163.96486°
Altitude
956.817 km
Speed
7.366 km/s
True Right ascension
16h 59m 55s
True Declination
6° 57' 27"
Sunlit
Object was in daylight at epoch
Visualization orbit readout
Latitude
Unknown
Longitude
Unknown
Altitude
Unknown
Speed
Unknown
Apparent Right ascension
Unknown
Apparent Declination
Unknown
Sunlit
N/A
Visualization observer readout
Local Sidereal Time
13:02:55
Azimuth
Unknown
Elevation
Unknown
Doppler factor
Unknown
Orbital elements
Apogee altitude
967.862 km
Perigee altitude
905.61 km
Semi-major axis
7,314.873 km
Eccentricity
0.00426
Inclination
82.9406°
RAAN
75.8457°
Arg. of periapsis
291.7395°
True anomaly
241.13571°
Mean anomaly
241.5634°
Eccentric anomaly
241.34945°
Mean motion
3.46923 °/min
Orbital period
103.77 mins
BSTAR
0.00023597
Loading maneuver chart data...
Computing Atmospheric mass density...
Loading historical data...
Loading historical data...
Loading historical data...
Loading historical data...
Loading historical data...
Loading historical data...
Loading historical data...

Documentation

Showing up to 5 results
|